Regional Weather Roundup
Issued by NWS

Home | Current Version | Previous Version | Text Only | Print | Product List | Glossary Off
Versions: 1 2 3 4 5 6 7 8 9 10 11 12 13 14 15 16 17 18 19 20 21 22 23 24 25 26 27 28 29 30 31 32 33 34 35 36 37 38 39 40 41 42 43 44 45 46 47 48 49 50

000
ASUS45 KCYS 260310
RWRWY

WYOMING REGIONAL WEATHER ROUNDUP
NATIONAL WEATHER SERVICE CHEYENNE WY
800 PM MST TUE NOV 25 2014

NOTE:  "FAIR" INDICATES FEW OR NO CLOUDS BELOW 12,000 FEET
WITH NO SIGNIFICANT WEATHER AND/OR OBSTRUCTIONS TO VISIBILITY.

WYZ001-260400-
YELLOWSTONE NATIONAL PARK

CITY           SKY/WX    TMP DP  RH WIND       PRES   REMARKS
LK YELLOWSTONE   N/A     30  27  88 VRB5      30.06R WCI  25
W YELLOWSTONE  NOT AVBL

$$
WYZ002>013-054>058-071-098>099-260400-
NORTHERN WYOMING

CITY           SKY/WX    TMP DP  RH WIND       PRES   REMARKS
JACKSON        NOT AVBL
CODY           CLOUDY    25  23  93 N8        30.12R WCI  16
GREYBULL       CLOUDY    30  25  81 W22       30.10R WCI  17
WORLAND        LGT SNOW  29  26  89 N23G31    30.12R FOG     WCI  15
SHERIDAN       LGT SNOW  29  25  85 NW25      30.11R FOG     WCI  14
BUFFALO        LGT SNOW  27  21  78 NW23      30.06R WCI  12
GILLETTE       CLOUDY    28  24  85 NW24G33   30.01R WCI  14
HULETT           N/A    N/A N/A N/A MISG        N/A
NEWCASTLE      MOCLDY    30  25  80 NW14G22   29.98R WCI  20

$$
WYZ014>020-022>026-101>103-260400-
CENTRAL WYOMING

CITY           SKY/WX    TMP DP  RH WIND       PRES   REMARKS
BIG PINEY      CLOUDY   N/A N/A N/A CALM      30.08S
PINEDALE       LGT SNOW  30  30 100 CALM      30.09R
DUBOIS         LGT SNOW  32  30  93 N13       29.98S WCI  22
LANDER         CLOUDY    33  24  69 VRB3      30.06R
RIVERTON       LGT SNOW  31  26  82 CALM      30.07R
CASPER         LGT SNOW  25  21  85 NE9       30.08R FOG     WCI  15
DOUGLAS        LGT SNOW N/A N/A N/A NW13      30.08R

$$
WYZ021-027>030-104>119-260400-
SOUTHERN WYOMING

CITY           SKY/WX    TMP DP  RH WIND       PRES   REMARKS
EVANSTON       MOCLDY    33  31  92 SW25G37   30.22F WCI  20
FORT BRIDGER   CLOUDY    37  33  87 W26G39    30.22R WCI  24
ROCK SPRINGS   CLOUDY    34  29  82 W28G35    30.10R WCI  21
DIXON          CLOUDY    35  25  66 SW12G22   30.16R WCI  27
RAWLINS        PTCLDY    34  28  79 W30G39    30.04R WCI  20
SARATOGA       CLOUDY    36  28  75 W28G33    30.04R WCI  23
LARAMIE        CLOUDY    35  25  66 W26G37    29.95R WCI  22
CHEYENNE       LGT SNOW  27  23  85 N17G26    29.97R VSB 1   WCI  14
TORRINGTON     LGT SNOW  32  30  92 NW15      30.01R FOG     WCI  22
PINE BLUFFS    LGT SNOW  30  28  93 N16       30.00R WCI  19

$$



USA.gov is the U.S. government's official web portal to all federal, state and local government web resources and services.